Time,TemperatureF,DewpointF,PressureIn,WindDirection,WindDirectionDegrees,WindSpeedMPH,WindSpeedGustMPH,Humidity,HourlyPrecipIn,Conditions,Clouds,dailyrainin,SoftwareType,DateUTC
2013-11-11 00:00:00,46.2,23.8,30.20,NNW,330,2.0,6.0,41,0.00,,---,0.00,VWS V14.01,2013-11-11 05:00:00,
2013-11-11 00:02:00,46.1,24.3,30.20,NW,323,4.0,6.0,42,0.00,,---,0.00,VWS V14.01,2013-11-11 05:02:00,
2013-11-11 00:03:00,46.1,23.7,30.20,North,4,2.0,6.0,41,0.00,,---,0.00,VWS V14.01,2013-11-11 05:03:00,
2013-11-11 00:04:00,46.0,24.2,30.20,North,3,1.0,2.0,42,0.00,,---,0.00,VWS V14.01,2013-11-11 05:04:00,
2013-11-11 00:10:00,45.8,23.5,30.20,NW,323,0.0,5.0,41,0.00,,---,0.00,VWS V14.01,2013-11-11 05:10:00,
2013-11-11 00:14:00,45.7,23.4,30.20,NNW,337,0.0,5.0,41,0.00,,---,0.00,VWS V14.01,2013-11-11 05:14:00,
2013-11-11 00:20:00,45.5,23.8,30.20,NNE,13,0.0,4.0,42,0.00,,---,0.00,VWS V14.01,2013-11-11 05:20:00,
2013-11-11 00:22:00,45.5,23.8,30.20,North,356,0.0,4.0,42,0.00,,---,0.00,VWS V14.01,2013-11-11 05:22:00,
2013-11-11 00:24:00,45.4,23.7,30.20,NNW,332,3.0,4.0,42,0.00,,---,0.00,VWS V14.01,2013-11-11 05:24:00,
2013-11-11 00:30:00,45.1,24.0,30.20,NNW,331,0.0,4.0,43,0.00,,---,0.00,VWS V14.01,2013-11-11 05:30:00,
2013-11-11 00:36:00,44.6,23.5,30.20,ESE,105,0.0,2.0,43,0.00,,---,0.00,VWS V14.01,2013-11-11 05:36:00,
2013-11-11 00:42:00,44.3,24.3,30.20,ESE,108,0.0,2.0,45,0.00,,---,0.00,VWS V14.01,2013-11-11 05:42:00,
2013-11-11 00:48:00,44.1,24.1,30.21,NNE,23,0.0,2.0,45,0.00,,---,0.00,VWS V14.01,2013-11-11 05:48:00,
2013-11-11 00:54:00,43.8,23.9,30.21,NNE,23,0.0,0.0,45,0.00,,---,0.00,VWS V14.01,2013-11-11 05:54:00,
2013-11-11 01:00:00,43.5,24.1,30.21,NNE,23,0.0,0.0,46,0.00,,---,0.00,VWS V14.01,2013-11-11 06:00:00,
2013-11-11 01:06:00,43.3,23.9,30.20,NNE,22,0.0,0.0,46,0.00,,---,0.00,VWS V14.01,2013-11-11 06:06:00,
2013-11-11 01:13:00,43.2,23.8,30.20,NNE,22,0.0,0.0,46,0.00,,---,0.00,VWS V14.01,2013-11-11 06:13:00,
2013-11-11 01:18:00,42.9,23.6,30.21,NNE,22,0.0,0.0,46,0.00,,---,0.00,VWS V14.01,2013-11-11 06:18:00,
2013-11-11 01:25:00,42.2,25.4,30.21,NNE,14,0.0,0.0,51,0.00,,---,0.00,VWS V14.01,2013-11-11 06:25:00,
2013-11-11 01:31:00,41.1,25.3,30.21,NNE,14,0.0,0.0,53,0.00,,---,0.00,VWS V14.01,2013-11-11 06:31:00,
2013-11-11 01:37:00,40.5,24.3,30.21,SSE,163,0.0,0.0,52,0.00,,---,0.00,VWS V14.01,2013-11-11 06:37:00,
2013-11-11 01:43:00,39.9,24.2,30.21,SSE,163,0.0,0.0,53,0.00,,---,0.00,VWS V14.01,2013-11-11 06:43:00,
2013-11-11 01:48:00,39.6,24.8,30.21,SSE,163,0.0,0.0,55,0.00,,---,0.00,VWS V14.01,2013-11-11 06:48:00,
2013-11-11 01:55:00,39.3,24.1,30.21,SSE,163,0.0,0.0,54,0.00,,---,0.00,VWS V14.01,2013-11-11 06:55:00,
2013-11-11 02:01:00,39.3,24.5,30.21,SSE,163,0.0,1.0,55,0.00,,---,0.00,VWS V14.01,2013-11-11 07:01:00,
2013-11-11 02:07:00,39.5,24.2,30.22,SSE,163,0.0,0.0,54,0.00,,---,0.00,VWS V14.01,2013-11-11 07:07:00,
2013-11-11 02:13:00,39.5,25.1,30.22,SSE,163,0.0,0.0,56,0.00,,---,0.00,VWS V14.01,2013-11-11 07:13:00,
2013-11-11 02:18:00,39.2,24.4,30.23,SSE,163,0.0,0.0,55,0.00,,---,0.00,VWS V14.01,2013-11-11 07:18:00,
2013-11-11 02:23:00,38.9,25.0,30.23,SSE,164,0.0,0.0,57,0.00,,---,0.00,VWS V14.01,2013-11-11 07:23:00,
2013-11-11 02:29:00,38.6,24.7,30.23,SSE,164,0.0,0.0,57,0.00,,---,0.00,VWS V14.01,2013-11-11 07:29:00,
2013-11-11 02:35:00,38.3,24.4,30.22,SSE,164,0.0,0.0,57,0.00,,---,0.00,VWS V14.01,2013-11-11 07:35:00,
2013-11-11 02:41:00,38.0,25.0,30.22,SSE,164,0.0,0.0,59,0.00,,---,0.00,VWS V14.01,2013-11-11 07:41:00,
2013-11-11 02:47:00,37.8,24.8,30.22,SSE,164,0.0,0.0,59,0.00,,---,0.00,VWS V14.01,2013-11-11 07:47:00,
2013-11-11 02:53:00,37.3,25.9,30.22,SSE,164,0.0,0.0,63,0.00,,---,0.00,VWS V14.01,2013-11-11 07:53:00,
2013-11-11 02:59:00,36.5,25.9,30.22,SSE,164,0.0,0.0,65,0.00,,---,0.00,VWS V14.01,2013-11-11 07:59:00,
2013-11-11 03:05:00,36.3,24.1,30.22,SSE,164,0.0,0.0,61,0.00,,---,0.00,VWS V14.01,2013-11-11 08:05:00,
2013-11-11 03:11:00,36.0,24.6,30.22,SSE,162,0.0,2.0,63,0.00,,---,0.00,VWS V14.01,2013-11-11 08:11:00,
2013-11-11 03:17:00,35.8,24.5,30.22,SSW,198,0.0,2.0,63,0.00,,---,0.00,VWS V14.01,2013-11-11 08:17:00,
2013-11-11 03:23:00,35.2,25.0,30.22,SSW,198,0.0,0.0,66,0.00,,---,0.00,VWS V14.01,2013-11-11 08:23:00,
2013-11-11 03:29:00,34.9,24.7,30.22,SSW,198,0.0,0.0,66,0.00,,---,0.00,VWS V14.01,2013-11-11 08:29:00,
2013-11-11 03:35:00,34.7,24.5,30.23,SSW,198,0.0,0.0,66,0.00,,---,0.00,VWS V14.01,2013-11-11 08:35:00,
2013-11-11 03:41:00,34.6,24.8,30.23,SSW,198,0.0,0.0,67,0.00,,---,0.00,VWS V14.01,2013-11-11 08:41:00,
2013-11-11 03:47:00,34.3,24.9,30.23,SSW,198,0.0,0.0,68,0.00,,---,0.00,VWS V14.01,2013-11-11 08:47:00,
2013-11-11 03:53:00,34.1,24.7,30.23,SSE,168,0.0,2.0,68,0.00,,---,0.00,VWS V14.01,2013-11-11 08:53:00,
2013-11-11 03:59:00,33.5,24.4,30.23,SSE,168,0.0,2.0,69,0.00,,---,0.00,VWS V14.01,2013-11-11 08:59:00,
2013-11-11 04:05:00,33.1,24.7,30.23,SSW,208,0.0,0.0,71,0.00,,---,0.00,VWS V14.01,2013-11-11 09:05:00,
2013-11-11 04:11:00,32.9,24.9,30.23,SSW,207,0.0,0.0,72,0.00,,---,0.00,VWS V14.01,2013-11-11 09:11:00,
2013-11-11 04:17:00,32.8,24.8,30.24,SSW,207,0.0,0.0,72,0.00,,---,0.00,VWS V14.01,2013-11-11 09:17:00,
2013-11-11 04:23:00,32.7,24.4,30.24,SSW,207,0.0,0.0,71,0.00,,---,0.00,VWS V14.01,2013-11-11 09:23:00,
2013-11-11 04:29:00,32.8,24.5,30.24,SSW,207,0.0,0.0,71,0.00,,---,0.00,VWS V14.01,2013-11-11 09:29:00,
2013-11-11 04:35:00,32.7,24.7,30.24,SSW,207,0.0,0.0,72,0.00,,---,0.00,VWS V14.01,2013-11-11 09:35:00,
2013-11-11 04:41:00,32.5,24.8,30.24,SSW,207,0.0,2.0,73,0.00,,---,0.00,VWS V14.01,2013-11-11 09:41:00,
2013-11-11 04:47:00,32.2,24.9,30.25,SSW,207,0.0,2.0,74,0.00,,---,0.00,VWS V14.01,2013-11-11 09:47:00,
2013-11-11 04:54:00,32.1,24.8,30.25,SSW,207,0.0,0.0,74,0.00,,---,0.00,VWS V14.01,2013-11-11 09:54:00,
2013-11-11 05:00:00,31.8,24.5,30.25,SSW,207,0.0,0.0,74,0.00,,---,0.00,VWS V14.01,2013-11-11 10:00:00,
2013-11-11 05:06:00,31.6,24.6,30.24,SSW,207,0.0,0.0,75,0.00,,---,0.00,VWS V14.01,2013-11-11 10:06:00,
2013-11-11 05:12:00,31.5,24.8,30.24,SSW,207,0.0,0.0,76,0.00,,---,0.00,VWS V14.01,2013-11-11 10:12:00,
2013-11-11 05:18:00,31.3,24.6,30.25,SSW,207,0.0,0.0,76,0.00,,---,0.00,VWS V14.01,2013-11-11 10:18:00,
2013-11-11 05:24:00,31.0,24.6,30.25,South,173,0.0,1.0,77,0.00,,---,0.00,VWS V14.01,2013-11-11 10:24:00,
2013-11-11 05:30:00,30.9,24.2,30.25,South,172,0.0,1.0,76,0.00,,---,0.00,VWS V14.01,2013-11-11 10:30:00,
2013-11-11 05:36:00,30.4,23.8,30.25,South,172,0.0,0.0,76,0.00,,---,0.00,VWS V14.01,2013-11-11 10:36:00,
2013-11-11 05:42:00,30.3,24.0,30.25,South,172,0.0,1.0,77,0.00,,---,0.00,VWS V14.01,2013-11-11 10:42:00,
2013-11-11 05:48:00,30.1,23.8,30.25,South,172,0.0,1.0,77,0.00,,---,0.00,VWS V14.01,2013-11-11 10:48:00,
2013-11-11 05:54:00,30.0,24.0,30.25,SSE,167,0.0,2.0,78,0.00,,---,0.00,VWS V14.01,2013-11-11 10:54:00,
2013-11-11 06:00:00,30.0,24.0,30.25,South,172,0.0,2.0,78,0.00,,---,0.00,VWS V14.01,2013-11-11 11:00:00,
2013-11-11 06:06:00,30.1,24.1,30.26,SE,126,0.0,2.0,78,0.00,,---,0.00,VWS V14.01,2013-11-11 11:06:00,
2013-11-11 06:12:00,30.0,24.3,30.26,SE,126,0.0,2.0,79,0.00,,---,0.00,VWS V14.01,2013-11-11 11:12:00,
2013-11-11 06:18:00,29.8,24.1,30.26,SE,126,0.0,2.0,79,0.00,,---,0.00,VWS V14.01,2013-11-11 11:18:00,
2013-11-11 06:24:00,29.7,24.0,30.26,SE,126,0.0,0.0,79,0.00,,---,0.00,VWS V14.01,2013-11-11 11:24:00,
2013-11-11 06:30:00,29.5,23.8,30.26,SE,126,0.0,0.0,79,0.00,,---,0.00,VWS V14.01,2013-11-11 11:30:00,
2013-11-11 06:36:00,29.4,24.0,30.27,SE,126,0.0,0.0,80,0.00,,---,0.00,VWS V14.01,2013-11-11 11:36:00,
2013-11-11 06:42:00,29.3,23.9,30.27,SE,126,0.0,0.0,80,0.00,,---,0.00,VWS V14.01,2013-11-11 11:42:00,
2013-11-11 06:48:00,29.0,23.9,30.27,SE,126,0.0,0.0,81,0.00,,---,0.00,VWS V14.01,2013-11-11 11:48:00,
2013-11-11 06:54:00,29.1,24.0,30.27,SE,126,0.0,0.0,81,0.00,,---,0.00,VWS V14.01,2013-11-11 11:54:00,
2013-11-11 07:00:00,29.1,24.0,30.27,SE,126,0.0,0.0,81,0.00,,---,0.00,VWS V14.01,2013-11-11 12:00:00,
2013-11-11 07:06:00,29.1,24.3,30.27,SE,126,0.0,0.0,82,0.00,,---,0.00,VWS V14.01,2013-11-11 12:06:00,
2013-11-11 07:12:00,29.3,24.5,30.27,SE,129,0.0,1.0,82,0.00,,---,0.00,VWS V14.01,2013-11-11 12:12:00,
2013-11-11 07:18:00,29.1,24.0,30.28,SE,129,0.0,1.0,81,0.00,,---,0.00,VWS V14.01,2013-11-11 12:18:00,
2013-11-11 07:24:00,29.1,24.0,30.28,SE,129,0.0,0.0,81,0.00,,---,0.00,VWS V14.01,2013-11-11 12:24:00,
2013-11-11 07:30:00,29.1,24.0,30.28,SE,129,0.0,0.0,81,0.00,,---,0.00,VWS V14.01,2013-11-11 12:30:00,
2013-11-11 07:36:00,29.1,24.3,30.29,SE,129,0.0,0.0,82,0.00,,---,0.00,VWS V14.01,2013-11-11 12:36:00,
2013-11-11 07:42:00,29.1,24.3,30.29,SE,129,0.0,0.0,82,0.00,,---,0.00,VWS V14.01,2013-11-11 12:42:00,
2013-11-11 07:48:00,29.1,24.3,30.29,SE,129,0.0,0.0,82,0.00,,---,0.00,VWS V14.01,2013-11-11 12:48:00,
2013-11-11 07:54:00,29.4,24.9,30.29,SE,129,0.0,0.0,83,0.00,,---,0.00,VWS V14.01,2013-11-11 12:54:00,
2013-11-11 08:00:00,29.8,25.3,30.29,SE,129,0.0,0.0,83,0.00,,---,0.00,VWS V14.01,2013-11-11 13:00:00,
2013-11-11 08:06:00,30.4,25.6,30.29,SE,129,0.0,0.0,82,0.00,,---,0.00,VWS V14.01,2013-11-11 13:06:00,
2013-11-11 08:12:00,31.0,25.9,30.29,SE,129,0.0,0.0,81,0.00,,---,0.00,VWS V14.01,2013-11-11 13:12:00,
2013-11-11 08:18:00,31.5,26.4,30.29,SE,129,0.0,0.0,81,0.00,,---,0.00,VWS V14.01,2013-11-11 13:18:00,
2013-11-11 08:24:00,32.2,26.7,30.29,SE,129,0.0,0.0,80,0.00,,---,0.00,VWS V14.01,2013-11-11 13:24:00,
2013-11-11 08:30:00,32.8,26.7,30.29,SE,129,0.0,0.0,78,0.00,,---,0.00,VWS V14.01,2013-11-11 13:30:00,
2013-11-11 08:36:00,33.5,27.1,30.29,SE,129,0.0,0.0,77,0.00,,---,0.00,VWS V14.01,2013-11-11 13:36:00,
2013-11-11 08:42:00,34.6,27.5,30.29,SE,129,0.0,0.0,75,0.00,,---,0.00,VWS V14.01,2013-11-11 13:42:00,
2013-11-11 08:48:00,35.8,27.7,30.29,SSE,154,0.0,2.0,72,0.00,,---,0.00,VWS V14.01,2013-11-11 13:48:00,
2013-11-11 08:54:00,36.9,27.3,30.29,SSE,163,0.0,2.0,68,0.00,,---,0.00,VWS V14.01,2013-11-11 13:54:00,
2013-11-11 09:01:00,37.9,27.6,30.29,SSE,154,0.0,2.0,66,0.00,,---,0.00,VWS V14.01,2013-11-11 14:01:00,
2013-11-11 09:07:00,38.9,27.0,30.30,SSE,155,0.0,0.0,62,0.00,,---,0.00,VWS V14.01,2013-11-11 14:07:00,
2013-11-11 09:13:00,40.1,27.8,30.30,SSE,155,0.0,0.0,61,0.00,,---,0.00,VWS V14.01,2013-11-11 14:13:00,
2013-11-11 09:18:00,40.8,27.2,30.29,SSE,155,0.0,0.0,58,0.00,,---,0.00,VWS V14.01,2013-11-11 14:18:00,
2013-11-11 09:25:00,41.8,27.7,30.29,SSE,155,0.0,0.0,57,0.00,,---,0.00,VWS V14.01,2013-11-11 14:25:00,
2013-11-11 09:31:00,42.3,27.7,30.29,SSE,153,0.0,0.0,56,0.00,,---,0.00,VWS V14.01,2013-11-11 14:31:00,
2013-11-11 09:37:00,42.9,27.0,30.30,SSE,153,0.0,1.0,53,0.00,,---,0.00,VWS V14.01,2013-11-11 14:37:00,
2013-11-11 09:43:00,43.9,26.0,30.30,SSE,153,0.0,1.0,49,0.00,,---,0.00,VWS V14.01,2013-11-11 14:43:00,
2013-11-11 09:48:00,44.6,25.6,30.29,SSE,153,0.0,1.0,47,0.00,,---,0.00,VWS V14.01,2013-11-11 14:48:00,
2013-11-11 09:55:00,45.7,27.1,30.29,SSE,158,0.0,2.0,48,0.00,,---,0.00,VWS V14.01,2013-11-11 14:55:00,
2013-11-11 10:01:00,46.4,26.8,30.29,SSE,158,0.0,2.0,46,0.00,,---,0.00,VWS V14.01,2013-11-11 15:01:00,
2013-11-11 10:07:00,47.1,25.2,30.29,SSE,150,0.0,2.0,42,0.00,,---,0.00,VWS V14.01,2013-11-11 15:07:00,
2013-11-11 10:13:00,48.0,26.0,30.29,South,169,0.0,3.0,42,0.00,,---,0.00,VWS V14.01,2013-11-11 15:13:00,
2013-11-11 10:18:00,48.6,26.0,30.29,South,182,0.0,3.0,41,0.00,,---,0.00,VWS V14.01,2013-11-11 15:18:00,
2013-11-11 10:25:00,49.5,26.2,30.29,SSE,168,0.0,2.0,40,0.00,,---,0.00,VWS V14.01,2013-11-11 15:25:00,
2013-11-11 10:31:00,50.1,25.5,30.29,SE,146,0.0,2.0,38,0.00,,---,0.00,VWS V14.01,2013-11-11 15:31:00,
2013-11-11 10:37:00,50.5,24.6,30.30,SE,137,0.0,3.0,36,0.00,,---,0.00,VWS V14.01,2013-11-11 15:37:00,
2013-11-11 10:43:00,51.0,25.0,30.30,SE,141,1.0,3.0,36,0.00,,---,0.00,VWS V14.01,2013-11-11 15:43:00,
2013-11-11 10:48:00,51.0,25.0,30.29,SE,124,3.0,5.0,36,0.00,,---,0.00,VWS V14.01,2013-11-11 15:48:00,
2013-11-11 10:55:00,51.6,24.2,30.29,ESE,122,0.0,3.0,34,0.00,,---,0.00,VWS V14.01,2013-11-11 15:55:00,
2013-11-11 11:01:00,51.7,25.6,30.29,North,1,0.0,3.0,36,0.00,,---,0.00,VWS V14.01,2013-11-11 16:01:00,
2013-11-11 11:07:00,52.3,24.8,30.28,SSW,200,1.0,1.0,34,0.00,,---,0.00,VWS V14.01,2013-11-11 16:07:00,
2013-11-11 11:13:00,52.0,24.5,30.28,SE,127,0.0,3.0,34,0.00,,---,0.00,VWS V14.01,2013-11-11 16:13:00,
2013-11-11 11:18:00,52.5,25.7,30.28,SE,134,0.0,3.0,35,0.00,,---,0.00,VWS V14.01,2013-11-11 16:18:00,
2013-11-11 11:23:00,53.1,22.5,30.28,SSE,157,4.0,4.0,30,0.00,,---,0.00,VWS V14.01,2013-11-11 16:23:00,
2013-11-11 11:29:00,53.5,24.4,30.28,NE,51,0.0,4.0,32,0.00,,---,0.00,VWS V14.01,2013-11-11 16:29:00,
2013-11-11 11:35:00,53.9,24.0,30.26,SSE,148,0.0,2.0,31,0.00,,---,0.00,VWS V14.01,2013-11-11 16:35:00,
2013-11-11 11:41:00,53.8,23.1,30.26,South,175,0.0,2.0,30,0.00,,---,0.00,VWS V14.01,2013-11-11 16:41:00,
2013-11-11 11:47:00,53.1,23.3,30.26,WSW,241,0.0,3.0,31,0.00,,---,0.00,VWS V14.01,2013-11-11 16:47:00,
2013-11-11 11:53:00,52.9,23.1,30.26,WSW,241,0.0,0.0,31,0.00,,---,0.00,VWS V14.01,2013-11-11 16:53:00,
2013-11-11 11:59:00,52.6,24.3,30.26,SE,145,0.0,1.0,33,0.00,,---,0.00,VWS V14.01,2013-11-11 16:59:00,
2013-11-11 12:05:00,53.2,24.1,30.25,SSE,162,0.0,2.0,32,0.00,,---,0.00,VWS V14.01,2013-11-11 17:05:00,
2013-11-11 12:11:00,53.3,24.2,30.25,WNW,297,0.0,2.0,32,0.00,,---,0.00,VWS V14.01,2013-11-11 17:11:00,
2013-11-11 12:17:00,53.6,23.7,30.23,ENE,64,3.0,4.0,31,0.00,,---,0.00,VWS V14.01,2013-11-11 17:17:00,
2013-11-11 12:23:00,54.1,24.2,30.23,SSE,158,4.0,4.0,31,0.00,,---,0.00,VWS V14.01,2013-11-11 17:23:00,
2013-11-11 12:29:00,54.8,22.3,30.23,ESE,110,3.0,5.0,28,0.00,,---,0.00,VWS V14.01,2013-11-11 17:29:00,
2013-11-11 12:35:00,55.4,22.9,30.22,South,180,0.0,3.0,28,0.00,,---,0.00,VWS V14.01,2013-11-11 17:35:00,
2013-11-11 12:41:00,55.4,22.9,30.22,SE,143,3.0,4.0,28,0.00,,---,0.00,VWS V14.01,2013-11-11 17:41:00,
2013-11-11 12:47:00,55.6,23.0,30.20,SSE,162,0.0,4.0,28,0.00,,---,0.00,VWS V14.01,2013-11-11 17:47:00,
2013-11-11 12:53:00,55.7,23.1,30.20,SE,125,0.0,3.0,28,0.00,,---,0.00,VWS V14.01,2013-11-11 17:53:00,
2013-11-11 12:59:00,56.0,23.4,30.20,SSE,153,2.0,4.0,28,0.00,,---,0.00,VWS V14.01,2013-11-11 17:59:00,
2013-11-11 13:05:00,56.2,22.7,30.19,SW,223,1.0,4.0,27,0.00,,---,0.00,VWS V14.01,2013-11-11 18:05:00,
2013-11-11 13:11:00,56.0,22.5,30.19,SW,218,0.0,4.0,27,0.00,,---,0.00,VWS V14.01,2013-11-11 18:11:00,
2013-11-11 13:17:00,55.9,21.5,30.19,SW,234,0.0,6.0,26,0.00,,---,0.00,VWS V14.01,2013-11-11 18:17:00,
2013-11-11 13:23:00,56.3,23.6,30.19,SSE,147,0.0,1.0,28,0.00,,---,0.00,VWS V14.01,2013-11-11 18:23:00,
2013-11-11 13:29:00,56.6,23.9,30.19,SE,139,0.0,3.0,28,0.00,,---,0.00,VWS V14.01,2013-11-11 18:29:00,
2013-11-11 13:35:00,56.7,24.0,30.17,East,97,1.0,3.0,28,0.00,,---,0.00,VWS V14.01,2013-11-11 18:35:00,
2013-11-11 13:41:00,57.3,23.6,30.17,SW,230,0.0,4.0,27,0.00,,---,0.00,VWS V14.01,2013-11-11 18:41:00,
2013-11-11 13:47:00,57.3,22.7,30.16,SE,144,3.0,7.0,26,0.00,,---,0.00,VWS V14.01,2013-11-11 18:47:00,
2013-11-11 13:54:00,57.3,22.7,30.16,SSE,162,2.0,5.0,26,0.00,,---,0.00,VWS V14.01,2013-11-11 18:54:00,
2013-11-11 14:00:00,57.5,22.0,30.16,WSW,243,1.0,5.0,25,0.00,,---,0.00,VWS V14.01,2013-11-11 19:00:00,
2013-11-11 14:06:00,57.6,23.0,30.15,SSE,158,3.0,6.0,26,0.00,,---,0.00,VWS V14.01,2013-11-11 19:06:00,
2013-11-11 14:12:00,58.0,23.3,30.15,South,184,1.0,6.0,26,0.00,,---,0.00,VWS V14.01,2013-11-11 19:12:00,
2013-11-11 14:18:00,58.0,23.3,30.14,SSW,208,0.0,6.0,26,0.00,,---,0.00,VWS V14.01,2013-11-11 19:18:00,
2013-11-11 14:24:00,58.1,22.5,30.14,South,181,1.0,4.0,25,0.00,,---,0.00,VWS V14.01,2013-11-11 19:24:00,
2013-11-11 14:30:00,58.4,22.7,30.14,SW,233,0.0,4.0,25,0.00,,---,0.00,VWS V14.01,2013-11-11 19:30:00,
2013-11-11 14:36:00,58.4,23.7,30.14,SW,229,0.0,2.0,26,0.00,,---,0.00,VWS V14.01,2013-11-11 19:36:00,
2013-11-11 14:42:00,58.1,25.2,30.14,WSW,245,0.0,6.0,28,0.00,,---,0.00,VWS V14.01,2013-11-11 19:42:00,
2013-11-11 14:48:00,58.3,23.6,30.14,SW,231,3.0,6.0,26,0.00,,---,0.00,VWS V14.01,2013-11-11 19:48:00,
2013-11-11 14:54:00,58.3,22.6,30.14,WSW,255,3.0,6.0,25,0.00,,---,0.00,VWS V14.01,2013-11-11 19:54:00,
2013-11-11 15:00:00,58.4,23.7,30.14,South,176,0.0,6.0,26,0.00,,---,0.00,VWS V14.01,2013-11-11 20:00:00,
2013-11-11 15:06:00,58.7,23.0,30.14,South,180,0.0,5.0,25,0.00,,---,0.00,VWS V14.01,2013-11-11 20:06:00,
2013-11-11 15:12:00,58.7,23.9,30.14,SW,229,0.0,6.0,26,0.00,,---,0.00,VWS V14.01,2013-11-11 20:12:00,
2013-11-11 15:18:00,59.0,23.2,30.14,SE,127,3.0,6.0,25,0.00,,---,0.00,VWS V14.01,2013-11-11 20:18:00,
2013-11-11 15:24:00,59.5,23.7,30.14,South,189,0.0,4.0,25,0.00,,---,0.00,VWS V14.01,2013-11-11 20:24:00,
2013-11-11 15:30:00,59.2,22.5,30.14,SW,225,3.0,4.0,24,0.00,,---,0.00,VWS V14.01,2013-11-11 20:30:00,
2013-11-11 15:36:00,59.3,21.5,30.14,SSW,205,0.0,3.0,23,0.00,,---,0.00,VWS V14.01,2013-11-11 20:36:00,
2013-11-11 15:42:00,59.0,22.3,30.14,WSW,241,0.0,7.0,24,0.00,,---,0.00,VWS V14.01,2013-11-11 20:42:00,
2013-11-11 15:48:00,59.5,22.7,30.14,SW,236,3.0,7.0,24,0.00,,---,0.00,VWS V14.01,2013-11-11 20:48:00,
2013-11-11 15:54:00,59.5,22.7,30.14,SW,226,4.0,7.0,24,0.00,,---,0.00,VWS V14.01,2013-11-11 20:54:00,
2013-11-11 16:00:00,59.6,22.8,30.14,South,169,1.0,7.0,24,0.00,,---,0.00,VWS V14.01,2013-11-11 21:00:00,
2013-11-11 16:06:00,59.6,22.8,30.14,South,175,0.0,2.0,24,0.00,,---,0.00,VWS V14.01,2013-11-11 21:06:00,
2013-11-11 16:12:00,59.5,22.7,30.14,SSE,165,0.0,5.0,24,0.00,,---,0.00,VWS V14.01,2013-11-11 21:12:00,
2013-11-11 16:18:00,59.3,22.5,30.14,SSE,156,0.0,5.0,24,0.00,,---,0.00,VWS V14.01,2013-11-11 21:18:00,
2013-11-11 16:24:00,59.2,22.5,30.14,SSE,168,0.0,1.0,24,0.00,,---,0.00,VWS V14.01,2013-11-11 21:24:00,
2013-11-11 16:30:00,58.7,23.9,30.14,South,182,0.0,1.0,26,0.00,,---,0.00,VWS V14.01,2013-11-11 21:30:00,
2013-11-11 16:36:00,58.3,23.6,30.14,SSE,156,0.0,0.0,26,0.00,,---,0.00,VWS V14.01,2013-11-11 21:36:00,
2013-11-11 16:42:00,57.8,23.2,30.14,South,184,0.0,1.0,26,0.00,,---,0.00,VWS V14.01,2013-11-11 21:42:00,
2013-11-11 16:48:00,57.6,23.9,30.13,South,184,0.0,1.0,27,0.00,,---,0.00,VWS V14.01,2013-11-11 21:48:00,
2013-11-11 16:54:00,57.5,23.8,30.13,South,184,0.0,0.0,27,0.00,,---,0.00,VWS V14.01,2013-11-11 21:54:00,
2013-11-11 17:00:00,57.2,23.5,30.13,South,176,0.0,0.0,27,0.00,,---,0.00,VWS V14.01,2013-11-11 22:00:00,
2013-11-11 17:06:00,56.7,23.1,30.12,SSE,165,0.0,1.0,27,0.00,,---,0.00,VWS V14.01,2013-11-11 22:06:00,
2013-11-11 17:12:00,56.3,23.6,30.12,SSE,152,0.0,2.0,28,0.00,,---,0.00,VWS V14.01,2013-11-11 22:12:00,
2013-11-11 17:18:00,55.9,23.3,30.13,SSE,152,0.0,2.0,28,0.00,,---,0.00,VWS V14.01,2013-11-11 22:18:00,
2013-11-11 17:24:00,55.4,22.9,30.13,SSE,152,0.0,0.0,28,0.00,,---,0.00,VWS V14.01,2013-11-11 22:24:00,
2013-11-11 17:30:00,55.1,23.4,30.13,SSE,152,0.0,0.0,29,0.00,,---,0.00,VWS V14.01,2013-11-11 22:30:00,
2013-11-11 17:36:00,54.8,23.2,30.13,SSE,152,0.0,0.0,29,0.00,,---,0.00,VWS V14.01,2013-11-11 22:36:00,
2013-11-11 17:42:00,54.4,23.6,30.13,SSE,152,0.0,0.0,30,0.00,,---,0.00,VWS V14.01,2013-11-11 22:42:00,
2013-11-11 17:48:00,54.1,23.4,30.13,SSE,152,0.0,0.0,30,0.00,,---,0.00,VWS V14.01,2013-11-11 22:48:00,
2013-11-11 17:55:00,53.6,23.7,30.13,SSE,152,0.0,0.0,31,0.00,,---,0.00,VWS V14.01,2013-11-11 22:55:00,
2013-11-11 18:01:00,53.3,23.5,30.13,SSE,152,0.0,0.0,31,0.00,,---,0.00,VWS V14.01,2013-11-11 23:01:00,
2013-11-11 18:07:00,53.1,24.0,30.12,SSE,152,0.0,0.0,32,0.00,,---,0.00,VWS V14.01,2013-11-11 23:07:00,
2013-11-11 18:13:00,52.8,23.8,30.12,SSE,152,0.0,0.0,32,0.00,,---,0.00,VWS V14.01,2013-11-11 23:13:00,
2013-11-11 18:18:00,52.5,25.0,30.13,SSE,152,0.0,0.0,34,0.00,,---,0.00,VWS V14.01,2013-11-11 23:18:00,
2013-11-11 18:25:00,52.0,25.2,30.13,SSE,152,0.0,0.0,35,0.00,,---,0.00,VWS V14.01,2013-11-11 23:25:00,
2013-11-11 18:31:00,51.6,24.9,30.13,SSE,152,0.0,0.0,35,0.00,,---,0.00,VWS V14.01,2013-11-11 23:31:00,
2013-11-11 18:37:00,51.4,24.0,30.12,SSE,152,0.0,0.0,34,0.00,,---,0.00,VWS V14.01,2013-11-11 23:37:00,
2013-11-11 18:43:00,51.1,24.4,30.12,SSE,152,0.0,0.0,35,0.00,,---,0.00,VWS V14.01,2013-11-11 23:43:00,
2013-11-11 18:48:00,51.1,23.7,30.12,SSE,152,0.0,0.0,34,0.00,,---,0.00,VWS V14.01,2013-11-11 23:48:00,
2013-11-11 18:55:00,51.0,24.3,30.12,SSE,157,0.0,1.0,35,0.00,,---,0.00,VWS V14.01,2013-11-11 23:55:00,
2013-11-11 19:01:00,51.0,24.3,30.12,SSE,157,0.0,1.0,35,0.00,,---,0.00,VWS V14.01,2013-11-12 00:01:00,
2013-11-11 19:07:00,50.7,24.7,30.12,SSE,157,0.0,0.0,36,0.00,,---,0.00,VWS V14.01,2013-11-12 00:07:00,
2013-11-11 19:13:00,50.4,24.5,30.12,SSE,157,0.0,0.0,36,0.00,,---,0.00,VWS V14.01,2013-11-12 00:13:00,
2013-11-11 19:18:00,50.1,24.9,30.12,SSE,157,0.0,0.0,37,0.00,,---,0.00,VWS V14.01,2013-11-12 00:18:00,
2013-11-11 19:25:00,49.6,25.0,30.12,SSE,157,0.0,0.0,38,0.00,,---,0.00,VWS V14.01,2013-11-12 00:25:00,
2013-11-11 19:31:00,49.2,25.3,30.12,SSE,157,0.0,0.0,39,0.00,,---,0.00,VWS V14.01,2013-11-12 00:31:00,
2013-11-11 19:37:00,48.8,25.0,30.12,SSE,157,0.0,0.0,39,0.00,,---,0.00,VWS V14.01,2013-11-12 00:37:00,
2013-11-11 19:43:00,48.6,24.2,30.12,SSE,157,0.0,0.0,38,0.00,,---,0.00,VWS V14.01,2013-11-12 00:43:00,
2013-11-11 19:48:00,48.8,23.7,30.12,SSE,157,0.0,0.0,37,0.00,,---,0.00,VWS V14.01,2013-11-12 00:48:00,
2013-11-11 19:55:00,49.5,24.3,30.12,SSE,158,0.0,0.0,37,0.00,,---,0.00,VWS V14.01,2013-11-12 00:55:00,
2013-11-11 20:01:00,49.6,23.8,30.12,SSE,158,0.0,0.0,36,0.00,,---,0.00,VWS V14.01,2013-11-12 01:01:00,
2013-11-11 20:07:00,49.8,23.9,30.12,SSE,158,0.0,0.0,36,0.00,,---,0.00,VWS V14.01,2013-11-12 01:07:00,
2013-11-11 20:13:00,49.6,23.8,30.12,SSE,158,0.0,0.0,36,0.00,,---,0.00,VWS V14.01,2013-11-12 01:13:00,
2013-11-11 20:18:00,49.5,24.3,30.11,SSE,158,0.0,0.0,37,0.00,,---,0.00,VWS V14.01,2013-11-12 01:18:00,
2013-11-11 20:23:00,49.4,24.2,30.11,SSE,158,0.0,0.0,37,0.00,,---,0.00,VWS V14.01,2013-11-12 01:23:00,
2013-11-11 20:29:00,49.2,24.1,30.11,SSE,158,0.0,1.0,37,0.00,,---,0.00,VWS V14.01,2013-11-12 01:29:00,
2013-11-11 20:35:00,49.1,24.0,30.10,SSE,158,0.0,0.0,37,0.00,,---,0.00,VWS V14.01,2013-11-12 01:35:00,
2013-11-11 20:41:00,49.1,24.0,30.10,SSE,157,0.0,0.0,37,0.00,,---,0.00,VWS V14.01,2013-11-12 01:41:00,
2013-11-11 20:47:00,49.1,24.0,30.10,SSE,157,0.0,1.0,37,0.00,,---,0.00,VWS V14.01,2013-11-12 01:47:00,
2013-11-11 20:53:00,48.8,24.3,30.10,SSE,157,0.0,0.0,38,0.00,,---,0.00,VWS V14.01,2013-11-12 01:53:00,
2013-11-11 20:59:00,48.6,24.2,30.10,SSE,158,0.0,1.0,38,0.00,,---,0.00,VWS V14.01,2013-11-12 01:59:00,
2013-11-11 21:05:00,48.2,24.4,30.09,SSE,158,0.0,0.0,39,0.00,,---,0.00,VWS V14.01,2013-11-12 02:05:00,
2013-11-11 21:11:00,47.7,24.6,30.09,SSE,160,0.0,1.0,40,0.00,,---,0.00,VWS V14.01,2013-11-12 02:11:00,
2013-11-11 21:17:00,47.9,24.8,30.09,SSE,160,0.0,1.0,40,0.00,,---,0.00,VWS V14.01,2013-11-12 02:17:00,
2013-11-11 21:23:00,48.2,24.4,30.09,SSW,196,0.0,2.0,39,0.00,,---,0.00,VWS V14.01,2013-11-12 02:23:00,
2013-11-11 21:29:00,48.3,24.5,30.09,South,188,0.0,2.0,39,0.00,,---,0.00,VWS V14.01,2013-11-12 02:29:00,
2013-11-11 21:35:00,48.6,24.8,30.08,SSW,193,0.0,1.0,39,0.00,,---,0.00,VWS V14.01,2013-11-12 02:35:00,
2013-11-11 21:41:00,48.6,24.8,30.08,South,188,0.0,1.0,39,0.00,,---,0.00,VWS V14.01,2013-11-12 02:41:00,
2013-11-11 21:47:00,48.6,24.8,30.08,SSW,206,3.0,3.0,39,0.00,,---,0.00,VWS V14.01,2013-11-12 02:47:00,
2013-11-11 21:54:00,48.6,24.8,30.08,SSW,206,0.0,3.0,39,0.00,,---,0.00,VWS V14.01,2013-11-12 02:54:00,
2013-11-11 22:00:00,48.6,24.8,30.08,SSW,206,0.0,3.0,39,0.00,,---,0.00,VWS V14.01,2013-11-12 03:00:00,
2013-11-11 22:06:00,48.9,25.0,30.09,SSW,206,0.0,2.0,39,0.00,,---,0.00,VWS V14.01,2013-11-12 03:06:00,
2013-11-11 22:12:00,49.1,25.2,30.09,SSW,206,0.0,3.0,39,0.00,,---,0.00,VWS V14.01,2013-11-12 03:12:00,
2013-11-11 22:18:00,48.8,25.0,30.08,SSW,206,0.0,3.0,39,0.00,,---,0.00,VWS V14.01,2013-11-12 03:18:00,
2013-11-11 22:24:00,48.6,24.2,30.08,SSW,206,0.0,1.0,38,0.00,,---,0.00,VWS V14.01,2013-11-12 03:24:00,
2013-11-11 22:30:00,48.8,24.3,30.08,WSW,251,1.0,5.0,38,0.00,,---,0.00,VWS V14.01,2013-11-12 03:30:00,
2013-11-11 22:36:00,48.9,24.4,30.08,WSW,251,0.0,0.0,38,0.00,,---,0.00,VWS V14.01,2013-11-12 03:36:00,
2013-11-11 22:42:00,48.8,24.3,30.08,WSW,251,0.0,0.0,38,0.00,,---,0.00,VWS V14.01,2013-11-12 03:42:00,
2013-11-11 22:48:00,48.6,24.8,30.08,WSW,251,0.0,0.0,39,0.00,,---,0.00,VWS V14.01,2013-11-12 03:48:00,
2013-11-11 22:54:00,48.5,24.7,30.08,WSW,251,3.0,4.0,39,0.00,,---,0.00,VWS V14.01,2013-11-12 03:54:00,
2013-11-11 23:00:00,48.8,24.3,30.08,SW,228,0.0,6.0,38,0.00,,---,0.00,VWS V14.01,2013-11-12 04:00:00,
2013-11-11 23:06:00,48.8,24.3,30.07,SW,228,0.0,0.0,38,0.00,,---,0.00,VWS V14.01,2013-11-12 04:06:00,
2013-11-11 23:12:00,48.6,24.8,30.07,SW,228,0.0,3.0,39,0.00,,---,0.00,VWS V14.01,2013-11-12 04:12:00,
2013-11-11 23:18:00,48.5,24.1,30.07,SW,228,0.0,3.0,38,0.00,,---,0.00,VWS V14.01,2013-11-12 04:18:00,
2013-11-11 23:24:00,48.2,25.0,30.07,SW,228,0.0,1.0,40,0.00,,---,0.00,VWS V14.01,2013-11-12 04:24:00,
2013-11-11 23:30:00,48.0,24.9,30.07,SW,227,0.0,1.0,40,0.00,,---,0.00,VWS V14.01,2013-11-12 04:30:00,
2013-11-11 23:36:00,47.9,24.8,30.07,South,186,0.0,0.0,40,0.00,,---,0.00,VWS V14.01,2013-11-12 04:36:00,
2013-11-11 23:43:00,47.6,25.1,30.07,SE,138,0.0,4.0,41,0.00,,---,0.00,VWS V14.01,2013-11-12 04:43:00,
2013-11-11 23:48:00,47.4,24.9,30.06,SSE,160,4.0,6.0,41,0.00,,---,0.00,VWS V14.01,2013-11-12 04:48:00,
2013-11-11 23:55:00,47.1,25.2,30.06,SE,141,0.0,5.0,42,0.00,,---,0.00,VWS V14.01,2013-11-12 04:55:00,